Wind_Speed
32 32 32 32 31 31 30 29 29 29 28 27 27 26 25 25 24 25 25 24 24 24 24 24 24 23 23 23 23 23 23 23 23 23 23 23 23 23 24 24 24 24 25
34 34 34 34 33 32 31 31 30 30 30 29 28 27 27 27 27 27 27 27 26 26 26 26 26 26 25 25 25 24 24 24 25 25 25 25 25 25 26 25 25 26 26
35 35 35 35 35 34 33 32 31 31 30 30 30 30 29 29 29 29 29 29 28 27 28 28 28 28 27 27 26 25 25 26 26 26 26 26 26 27 27 27 27 27 27
37 36 36 36 36 36 34 33 33 32 32 32 32 32 32 31 31 30 30 30 30 30 30 30 30 30 29 28 27 27 27 27 28 28 28 28 28 28 28 28 28 28 29
38 38 37 37 37 36 35 35 34 34 34 34 33 33 34 33 33 33 32 32 32 32 32 32 32 32 31 30 30 30 30 30 30 30 30 30 30 30 30 30 30 30 30
40 39 38 38 38 37 36 36 35 35 36 36 35 35 35 34 34 34 34 33 33 34 34 33 33 33 33 33 32 32 32 31 32 32 31 31 31 31 31 32 32 31 31
42 41 40 40 39 39 38 38 38 38 38 38 37 37 36 36 36 36 36 36 35 35 35 35 35 35 35 35 35 34 34 34 33 33 33 33 33 33 33 33 34 33 33
43 42 42 41 41 41 41 40 40 40 40 39 39 39 38 38 38 38 38 38 38 37 37 37 37 37 36 37 37 37 37 36 35 35 35 35 35 35 35 35 35 35 35
44 44 44 43 43 43 43 43 42 42 42 41 39 40 40 40 39 39 39 39 39 39 38 39 38 38 38 38 38 37 37 37 36 36 36 36 36 36 36 36 36 37 37
45 46 45 45 45 45 45 45 44 44 43 43 42 42 42 41 41 40 40 40 41 41 40 39 39 38 39 39 38 38 38 38 38 38 38 39 39 39 38 38 38 38 38
46 47 47 47 48 47 46 46 46 46 45 45 45 44 44 43 43 43 41 41 41 41 41 41 41 40 40 40 40 40 40 40 40 41 40 40 40 40 40 40 40 40 40
47 47 48 48 48 49 48 48 47 47 47 47 46 45 45 44 43 43 42 43 43 43 42 42 42 42 42 42 42 42 42 42 42 42 42 42 42 42 42 41 41 42 42
47 47 48 49 49 49 48 48 48 47 47 47 46 46 46 45 45 44 44 44 44 44 43 43 43 43 43 43 43 43 44 44 43 43 43 43 43 43 43 43 43 43 44
47 47 48 49 49 49 49 48 47 47 47 48 48 48 48 47 47 46 46 45 45 45 45 44 45 45 45 45 45 45 45 45 45 45 45 45 45 45 44 45 45 45 45
48 48 48 48 48 48 48 48 48 48 48 48 49 49 49 48 47 47 47 47 47 47 47 46 46 46 46 47 47 47 46 47 47 47 46 46 46 46 46 46 46 47 47
49 49 49 49 49 48 48 49 49 49 49 49 50 50 50 50 49 49 49 49 50 50 49 48 48 48 49 48 48 48 48 47 47 47 47 47 47 47 47 47 48 48 49
50 49 49 49 49 50 50 50 50 50 50 50 51 51 51 51 51 51 51 51 51 52 52 50 50 50 50 50 49 50 49 49 48 48 49 48 48 49 49 49 49 50 50
49 50 50 50 50 50 50 50 50 51 51 51 51 52 52 53 54 53 53 53 53 53 53 52 51 51 51 51 51 50 50 50 49 49 49 49 49 50 50 50 50 50 51
49 50 50 50 51 51 51 51 51 52 52 53 53 53 53 54 54 55 55 54 54 55 54 54 53 53 52 53 53 52 51 51 51 50 50 51 51 51 51 51 51 51 51
49 50 51 51 51 52 52 53 53 53 54 54 54 54 54 54 55 55 55 55 55 55 55 55 54 53 53 53 53 53 53 52 52 51 50 50 49 50 50 51 51 51 51
50 50 51 51 52 53 53 53 54 54 54 55 55 55 55 55 55 55 56 56 56 56 56 56 55 54 54 54 54 54 54 53 53 52 51 51 50 50 51 51 52 52 52
50 50 51 51 52 52 53 53 54 54 54 55 56 56 56 57 56 56 56 56 57 57 56 56 56 55 55 55 55 55 54 54 53 53 53 52 52 52 52 52 53 53 54
50 49 50 50 51 52 53 53 54 54 55 55 57 57 58 57 57 57 57 57 57 56 57 57 57 56 56 55 56 55 55 54 54 54 54 54 53 53 53 53 54 54 55
49 49 49 50 51 52 53 54 54 55 55 56 56 56 57 57 57 57 57 57 57 57 57 57 57 57 56 56 55 55 55 55 55 55 55 54 54 54 54 54 55 55 55
48 49 50 51 51 52 52 52 52 53 54 55 55 55 56 57 57 57 56 56 57 57 57 58 58 57 57 56 55 54 54 54 54 55 54 54 55 56 56 55 55 56 56
46 47 48 49 50 51 51 51 51 51 52 53 54 54 54 54 55 55 55 55 56 57 57 58 58 57 57 56 55 55 54 54 54 54 54 54 55 56 56 56 56 56 57
Wind_Direction
244 244 244 245 245 245 245 245 243 244 245 245 246 248 248 250 250 251 251 252 252 253 255 255 254 256 258 259 260 261 264 266 267 268 268 269 268 270 270 271 271 270 270
245 244 243 244 244 244 244 245 245 244 245 246 247 248 249 250 251 252 252 253 253 254 255 255 255 256 257 258 260 261 264 267 268 267 268 269 269 270 272 272 272 272 271
244 245 244 244 243 244 245 246 246 247 247 247 249 251 252 253 253 252 252 253 254 254 253 254 255 256 257 258 259 260 264 267 268 268 269 270 270 271 272 272 272 272 272
243 244 243 245 244 244 245 246 247 249 249 250 251 252 253 254 255 254 253 253 254 253 253 255 256 257 257 257 258 261 264 267 269 269 269 270 270 271 272 272 272 272 272
243 244 244 245 246 246 246 247 248 249 251 251 251 252 252 254 254 255 255 254 253 254 255 255 256 257 258 258 260 262 264 266 268 269 269 270 270 271 271 271 272 272 272
243 244 244 245 245 246 247 248 248 250 251 252 252 252 253 253 254 254 254 254 255 255 256 256 257 258 258 259 261 263 264 266 268 269 270 270 271 271 271 270 271 272 271
244 244 244 245 246 247 248 249 249 250 250 250 251 251 252 253 253 254 254 255 256 255 256 257 258 258 258 260 261 263 264 266 268 270 271 271 271 271 270 271 271 271 271
243 243 244 245 246 247 248 249 249 250 249 249 250 250 251 252 253 254 255 256 257 257 257 258 260 261 261 262 262 264 265 267 269 270 270 271 271 271 271 271 271 270 270
243 243 244 245 246 247 247 249 249 250 250 250 252 253 252 252 252 254 255 257 258 260 261 261 261 262 263 264 265 265 266 267 269 270 270 270 270 271 271 271 270 269 269
244 244 244 245 246 247 248 249 249 250 250 251 252 254 255 256 255 257 258 258 259 260 261 262 261 262 263 264 265 265 266 267 268 269 270 270 271 271 271 270 270 269 269
245 245 246 246 246 247 249 249 250 250 251 251 252 254 255 256 256 257 258 258 259 260 261 262 262 263 263 263 264 265 266 267 268 268 269 270 271 271 270 270 270 269 269
246 246 247 247 247 248 249 249 250 251 251 251 252 253 255 255 255 257 257 258 259 260 260 261 262 263 264 264 264 265 265 266 268 268 269 269 270 271 270 269 269 269 270
246 246 246 247 248 248 249 249 249 250 250 251 252 253 254 254 256 257 258 259 259 260 261 261 262 263 264 265 265 265 266 266 267 268 269 269 269 270 269 269 269 270 270
246 247 247 247 248 248 248 248 249 249 250 252 253 254 255 256 257 257 258 259 259 260 260 261 263 263 265 266 265 265 266 267 267 268 269 269 269 269 269 269 269 270 271
245 247 247 247 248 248 248 248 249 251 252 252 253 254 255 256 256 257 258 259 260 260 261 262 263 264 265 266 266 266 267 267 267 268 269 269 269 268 268 269 270 270 270
245 246 246 247 248 248 249 250 251 251 251 252 253 253 254 255 256 257 258 260 261 261 261 262 264 264 264 266 267 267 267 267 268 268 268 269 269 268 268 269 270 271 271
246 247 247 248 248 249 250 251 252 252 253 253 253 253 254 256 257 257 258 259 261 262 262 263 263 264 264 265 267 267 267 268 269 268 269 269 269 269 268 269 270 271 272
248 248 249 249 250 251 251 252 252 252 253 254 255 255 256 256 257 258 259 260 260 262 262 263 263 264 264 265 266 267 267 268 269 269 269 269 269 269 269 269 270 271 272
249 250 251 251 251 252 252 252 253 253 254 254 255 256 256 257 257 258 258 259 260 262 263 263 263 264 265 266 266 266 267 268 269 270 270 269 269 269 270 270 271 272 273
251 251 252 252 252 252 253 253 254 254 255 255 256 256 256 257 258 259 258 259 261 262 263 263 263 264 265 265 266 266 267 267 269 270 270 270 270 271 271 271 271 272 273
252 252 253 253 253 253 254 254 255 256 256 256 255 255 256 257 258 259 259 260 261 262 263 263 264 265 264 265 266 266 266 267 268 269 270 270 271 272 272 271 271 272 274
253 253 253 254 254 254 255 255 256 256 256 256 256 256 257 257 258 259 259 260 262 262 262 263 263 263 264 265 266 266 266 267 268 269 269 269 271 272 272 272 273 274 275
253 254 254 255 254 255 255 256 256 257 256 256 257 257 257 258 259 259 260 261 261 261 262 262 263 263 264 265 265 265 266 267 268 268 268 270 271 272 272 273 274 274 275
254 254 254 255 255 256 257 257 257 258 257 257 257 257 257 258 259 260 260 260 261 261 262 262 262 262 264 264 265 265 266 267 267 268 269 270 271 271 272 272 273 274 275
256 256 255 255 256 257 258 258 258 258 258 257 257 258 258 258 259 260 260 261 261 262 262 262 262 262 263 264 264 265 265 266 267 268 268 270 271 272 272 273 274 274 274
257 256 256 256 256 257 258 259 258 258 258 257 257 258 259 259 259 260 262 262 262 261 261 262 262 262 263 262 263 264 265 266 267 267 268 270 272 273 273 274 274 275 275
Height
5789 5792 5794 5795 5797 5799 5801 5803 5804 5806 5808 5809 5811 5812 5814 5815 5816 5817 5818 5819 5820 5820 5821 5821 5822 5823 5823 5824 5824 5825 5825 5825 5826 5826 5826 5825 5825 5825 5825 5825 5825 5824 5824
5782 5784 5787 5789 5791 5793 5795 5797 5798 5800 5802 5803 5805 5806 5808 5809 5810 5811 5812 5813 5814 5815 5815 5816 5817 5817 5818 5818 5819 5819 5820 5820 5820 5820 5820 5820 5820 5820 5819 5819 5819 5819 5819
5775 5777 5779 5781 5784 5786 5788 5790 5792 5793 5795 5797 5798 5800 5801 5803 5804 5805 5806 5807 5808 5809 5809 5810 5811 5811 5812 5813 5813 5814 5814 5814 5814 5815 5814 5814 5814 5814 5814 5814 5813 5813 5813
5767 5770 5772 5774 5776 5779 5781 5783 5785 5787 5788 5790 5792 5793 5794 5796 5797 5798 5799 5800 5801 5802 5803 5804 5804 5805 5806 5807 5807 5807 5808 5808 5808 5808 5808 5808 5808 5808 5808 5807 5807 5807 5807
5759 5762 5764 5767 5769 5771 5773 5776 5778 5779 5781 5782 5784 5786 5787 5788 5790 5791 5792 5793 5794 5795 5796 5797 5798 5799 5800 5800 5800 5801 5801 5801 5801 5801 5801 5801 5801 5801 5801 5801 5800 5800 5800
5750 5753 5756 5759 5761 5764 5766 5768 5770 5771 5773 5774 5776 5778 5779 5780 5782 5783 5784 5785 5786 5788 5789 5789 5791 5791 5792 5793 5793 5794 5794 5794 5794 5794 5794 5794 5794 5794 5794 5793 5793 5793 5793
5740 5744 5747 5750 5753 5755 5757 5759 5761 5763 5765 5766 5768 5769 5771 5772 5774 5775 5776 5778 5779 5780 5781 5782 5783 5784 5784 5785 5785 5786 5786 5786 5786 5786 5786 5786 5786 5786 5786 5786 5785 5785 5785
5731 5734 5737 5740 5743 5746 5748 5750 5752 5754 5756 5758 5759 5760 5762 5764 5765 5767 5768 5769 5770 5771 5772 5773 5774 5775 5776 5777 5777 5778 5778 5778 5778 5778 5778 5778 5778 5777 5777 5777 5777 5777 5776
5720 5724 5727 5730 5733 5735 5738 5741 5743 5745 5747 5749 5750 5752 5753 5755 5757 5758 5759 5761 5762 5763 5764 5765 5765 5767 5767 5768 5768 5769 5769 5769 5769 5769 5769 5769 5769 5769 5768 5768 5768 5768 5767
5709 5713 5716 5719 5722 5725 5728 5730 5733 5735 5737 5739 5740 5742 5744 5746 5748 5749 5751 5751 5752 5753 5754 5755 5756 5757 5757 5758 5759 5759 5760 5760 5760 5760 5760 5760 5760 5759 5759 5758 5758 5758 5758
5698 5702 5705 5708 5711 5714 5717 5719 5722 5724 5727 5729 5730 5732 5734 5735 5737 5739 5741 5742 5743 5744 5744 5745 5746 5747 5747 5748 5749 5749 5750 5750 5750 5750 5750 5750 5750 5750 5749 5749 5748 5748 5748
5687 5690 5693 5696 5699 5702 5705 5708 5710 5713 5715 5718 5720 5721 5723 5725 5727 5728 5730 5731 5732 5734 5734 5735 5736 5737 5737 5737 5738 5739 5739 5740 5740 5740 5740 5740 5740 5739 5739 5739 5738 5738 5737
5676 5679 5681 5684 5687 5690 5693 5696 5698 5701 5704 5706 5708 5711 5712 5714 5716 5717 5719 5720 5722 5723 5723 5724 5725 5726 5726 5727 5727 5728 5728 5729 5729 5729 5729 5729 5729 5728 5728 5728 5727 5727 5726
5665 5667 5670 5672 5675 5678 5681 5684 5686 5689 5692 5694 5697 5699 5701 5702 5704 5706 5707 5709 5710 5712 5713 5714 5714 5715 5715 5715 5716 5716 5717 5717 5717 5717 5717 5717 5717 5717 5717 5716 5716 5715 5715
5652 5655 5658 5661 5663 5666 5668 5671 5675 5677 5680 5683 5685 5687 5689 5691 5692 5694 5695 5697 5698 5700 5702 5703 5703 5703 5703 5703 5704 5705 5705 5705 5705 5705 5705 5705 5705 5705 5705 5704 5704 5703 5703
5640 5643 5646 5649 5651 5654 5656 5659 5662 5665 5668 5670 5672 5674 5676 5678 5680 5682 5683 5684 5685 5687 5689 5691 5690 5690 5691 5691 5692 5692 5692 5692 5692 5693 5693 5693 5693 5692 5692 5692 5691 5691 5690
5627 5630 5633 5636 5639 5641 5644 5647 5650 5652 5655 5657 5659 5662 5664 5665 5667 5669 5670 5671 5672 5673 5675 5677 5677 5677 5677 5678 5679 5679 5679 5680 5680 5680 5680 5680 5679 5679 5679 5678 5678 5677 5677
5614 5617 5620 5623 5626 5629 5631 5634 5636 5639 5641 5644 5646 5648 5650 5652 5653 5655 5656 5657 5658 5659 5660 5662 5663 5664 5664 5665 5665 5666 5666 5666 5667 5667 5667 5666 5666 5665 5665 5664 5664 5663 5663
5601 5604 5607 5610 5613 5615 5618 5620 5622 5625 5627 5630 5632 5634 5636 5638 5639 5640 5642 5643 5644 5645 5646 5647 5649 5650 5651 5651 5651 5652 5652 5653 5653 5653 5653 5653 5652 5651 5651 5651 5650 5649 5649
5588 5591 5593 5596 5599 5601 5603 5606 5608 5611 5613 5615 5617 5619 5621 5623 5625 5626 5627 5628 5629 5630 5631 5632 5634 5635 5636 5637 5637 5638 5638 5639 5639 5639 5639 5639 5638 5638 5637 5637 5636 5635 5634
5574 5577 5579 5582 5584 5587 5589 5591 5594 5596 5598 5600 5602 5604 5606 5608 5609 5610 5612 5613 5614 5615 5616 5618 5619 5620 5621 5622 5623 5623 5623 5624 5624 5624 5625 5625 5624 5624 5623 5622 5621 5621 5620
5560 5562 5565 5567 5569 5572 5574 5576 5578 5581 5583 5585 5587 5589 5591 5592 5594 5595 5596 5598 5599 5600 5602 5603 5604 5605 5606 5607 5607 5608 5608 5609 5610 5611 5610 5610 5610 5609 5608 5608 5607 5606 5605
5546 5548 5550 5552 5555 5557 5559 5561 5563 5565 5567 5569 5571 5573 5575 5577 5578 5579 5580 5582 5583 5585 5587 5588 5589 5590 5591 5592 5592 5593 5593 5594 5595 5596 5595 5596 5595 5595 5594 5593 5592 5591 5590
5532 5534 5536 5538 5540 5542 5544 5546 5547 5549 5551 5553 5555 5557 5559 5560 5562 5563 5565 5566 5568 5569 5571 5572 5574 5575 5575 5576 5577 5578 5578 5579 5580 5579 5579 5580 5580 5579 5579 5577 5576 5575 5574
5517 5519 5521 5523 5526 5528 5529 5531 5532 5533 5535 5538 5539 5541 5542 5544 5546 5548 5549 5551 5552 5553 5554 5556 5557 5558 5559 5560 5561 5562 5563 5564 5565 5565 5564 5564 5564 5564 5563 5562 5561 5559 5558
5503 5504 5507 5509 5511 5513 5515 5516 5517 5519 5521 5523 5524 5526 5527 5529 5530 5531 5533 5534 5536 5538 5539 5540 5541 5542 5544 5545 5546 5547 5548 5549 5549 5550 5549 5549 5548 5548 5548 5547 5545 5543 5542